Weather History for South Lake Tahoe, CA

Change the Weather History Date:

Saturday, November 2, 2013

  Actual Average Record
Temperature  
Mean Temperature 43 °F 40 °F  
Max Temperature 60 °F 56 °F 68 °F (2009)
Min Temperature 25 °F 25 °F 8 °F (2003)
Degree Days  
Heating Degree Days 22 24  
Month to date heating degree days 44 48  
Since 1 July heating degree days 1125 1280  
Cooling Degree Days 0 0  
Month to date cooling degree days 0 0  
Year to date cooling degree days 104 31  
Moisture  
Dew Point 22 °F    
Average Humidity 49    
Maximum Humidity 78    
Minimum Humidity 19    
Precipitation  
Precipitation 0.00 in - 1.77 in (1948)
Month to date precipitation 0.00  
Year to date precipitation 7.56  
Sea Level Pressure  
Sea Level Pressure 30.01 in    
Wind  
Wind Speed 6 mph (South)    
Max Wind Speed 24 mph    
Max Gust Speed 31 mph    
Visibility 10 miles    
Events      
T = Trace of Precipitation, MM = Missing Value Source: NWS Daily Summary

Daily Weather History Graph

Daily Weather History Graph

Search for Another Location

Airport:

Trip Planner

Search our weather history database for the weather conditions in past years. The results will help you decide how hot, cold, wet, or windy it might be!

Date:

Astronomy

Nov. 02, 2013 Rise Set
Actual Time 7:28 AM PDT 5:57 PM PDT
Civil Twilight 7:00 AM PDT 6:25 PM PDT
Nautical Twilight 6:29 AM PDT 6:57 PM PDT
Astronomical Twilight 5:58 AM PDT 7:28 PM PDT
Moon 6:31 AM PDT (11/2) 5:32 PM PDT (11/2)
Length of Visible Light 11h 24m
Length of Day
10h 29m
Waning Crescent, 1% of the Moon is Illuminated
Nov 2
Waning Crescent
Nov 3
New
Nov 9
First Quarter
Nov 17
Full
Nov 25
Last Quarter

Hourly Weather History & Observations

Time (PDT) Temp. Windchill Dew Point Humidity Pressure Visibility Wind Dir Wind Speed Gust Speed Precip Events Conditions
12:53 AM 28.9 °F - 23.0 °F 78% 30.14 in 10.0 mi Calm Calm - N/A   Clear
1:53 AM 28.0 °F 24.2 °F 21.0 °F 75% 30.14 in 10.0 mi South 3.5 mph - N/A   Clear
2:53 AM 28.0 °F - 21.0 °F 75% 30.12 in 10.0 mi Calm Calm - N/A   Clear
3:53 AM 27.0 °F - 19.9 °F 75% 30.09 in 10.0 mi Calm Calm - N/A   Clear
4:53 AM 27.0 °F - 19.9 °F 75% 30.10 in 10.0 mi Calm Calm - N/A   Clear
5:53 AM 28.9 °F 21.1 °F 21.0 °F 72% 30.11 in 10.0 mi South 8.1 mph - N/A   Clear
6:53 AM 30.9 °F 22.8 °F 21.0 °F 67% 30.11 in 10.0 mi South 9.2 mph - N/A   Clear
7:53 AM 35.1 °F 29.3 °F 19.9 °F 54% 30.10 in 10.0 mi SSW 6.9 mph - N/A   Clear
8:53 AM 37.0 °F 31.0 °F 21.9 °F 54% 30.11 in 10.0 mi South 8.1 mph - N/A   Clear
9:53 AM 53.1 °F - 19.0 °F 26% 30.06 in 10.0 mi South 11.5 mph - N/A   Clear
10:53 AM 55.0 °F - 19.9 °F 25% 30.03 in 10.0 mi South 15.0 mph 24.2 mph N/A   Clear
11:53 AM 57.0 °F - 19.0 °F 23% 30.01 in 10.0 mi SSW 11.5 mph 23.0 mph N/A   Clear
12:53 PM 57.9 °F - 18.0 °F 21% 29.99 in 10.0 mi South 16.1 mph 25.3 mph N/A   Clear
1:53 PM 59.0 °F - 18.0 °F 20% 29.96 in 10.0 mi South 15.0 mph 25.3 mph N/A   Clear
2:53 PM 60.1 °F - 17.1 °F 19% 29.94 in 10.0 mi South 21.9 mph 31.1 mph N/A   Clear
3:53 PM 57.9 °F - 21.0 °F 24% 29.94 in 10.0 mi SSW 8.1 mph - N/A   Clear
4:53 PM 54.0 °F - 23.0 °F 30% 29.94 in 10.0 mi South 10.4 mph 20.7 mph N/A   Partly Cloudy
5:53 PM 51.1 °F - 27.0 °F 39% 29.94 in 10.0 mi South 10.4 mph - N/A   Scattered Clouds
6:53 PM 48.9 °F - 26.1 °F 41% 29.94 in 10.0 mi SSW 8.1 mph - N/A   Mostly Cloudy
7:53 PM 48.9 °F - 24.1 °F 38% 29.91 in 10.0 mi South 15.0 mph 20.7 mph N/A   Partly Cloudy
8:53 PM 48.9 °F - 24.1 °F 38% 29.91 in 10.0 mi SSE 8.1 mph 18.4 mph N/A   Overcast
9:53 PM 48.0 °F - 24.1 °F 39% 29.86 in 10.0 mi SE 8.1 mph - N/A   Overcast
10:53 PM 46.9 °F - 28.0 °F 48% 29.86 in 10.0 mi SSE 12.7 mph 20.7 mph N/A   Overcast
11:53 PM 48.0 °F - 30.0 °F 50% 29.84 in 10.0 mi SSE 9.2 mph - N/A   Overcast